AXIOM-4 (AX-4)

Last updated on Thu Jul 03 2025 00:02:08 GMT+0000 (Coordinated Universal Time)

1 64593U 25136A 25183.47663921 .00006802 00000+0 12554-3 0 9996 2 64593 51.6344 231.2960 0002369 323.3310 36.7517 15.50345296 661
UTC large
Height (km)
Speed (km/s)
/
Latitude / Longitude
Inclination (degrees)
Orbital Period (minutes)
Azimuth
Elevation
Range (km)
Doppler Factor

Next 0 passes for location: London (51.5072 / 0.1276)

Sorry there are no passes over London.